{"data":{"norad_id":64773,"epoch":"2026-05-24T23:28:08.139072Z","epoch_age_seconds":70742,"freshness":"FRESH","line1":"1 64773U 25147U   26144.97787198  .00033580  00000+0  10005-2 0  9995","line2":"2 64773  53.1581 247.5599 0000890  60.9162 299.1930 15.34401373 50441","mean_motion":15.34401373,"eccentricity":8.9e-5,"inclination_deg":53.1581,"raan_deg":247.5599,"arg_perigee_deg":60.9162,"mean_anomaly_deg":299.193,"bstar":0.0010005,"rev_number":5044,"period_min":93.847674105281,"perigee_km":462.09032494662,"apogee_km":463.30799378299,"semimajor_km":6840.8361593648,"source":"CELESTRAK","updated_at":"2026-05-25T13:38:20.558330Z"}}